Preview of NWS' New Version of Forecast
This preview is not operational and should not be used for support decisions.

Regional Weather Roundup (RWR)

Issued by National Weather Service (NWS)

                            
000
ASUS45 KBOI 190810
RWRID 

IDAHO REGIONAL WEATHER ROUNDUP
NATIONAL WEATHER SERVICE BOISE ID
100 AM MST TUE FEB 19 2019

NOTE: "FAIR" INDICATES FEW OR NO CLOUDS BELOW 12000 FEET
WITH NO SIGNIFICANT WEATHER AND/OR OBSTRUCTIONS TO VISIBILITY

IDZ012-014-190900-
SOUTHWEST IDAHO

  
CITY           SKY/WX    TMP DP  RH WIND       PRES   REMARKS
BOISE          CLEAR     23  17  78 NW10      30.15S WCI  12          
CALDWELL       NOT AVBL                                               
MOUNTAIN HOME  CLOUDY    24  24 100 NW14        N/A  WCI  12          
$$

IDZ016-017-190900-
SOUTHCENTRAL IDAHO

  
CITY           SKY/WX    TMP DP  RH WIND       PRES   REMARKS
BURLEY         PTCLDY    19  10  68 W16       30.02S WCI   4          
JEROME         CLOUDY    17  11  77 SW7       30.04R WCI   8          
TWIN FALLS     PTCLDY    16   9  74 SW17      30.04R WCI   0          
$$

IDZ019>023-190900-
SOUTHEAST IDAHO

  
CITY           SKY/WX    TMP DP  RH WIND       PRES   REMARKS
IDAHO FALLS    LGT SNOW  15  12  88 NE6       30.00R FOG     WCI   6  
POCATELLO      CLOUDY    20  15  81 SW14      30.02S WCI   7          
REXBURG        CLOUDY    15  11  83 CALM      29.98S                  
$$

IDZ006-010-011-018-031-032-190900-
CENTRAL IDAHO MOUNTAINS

  
CITY           SKY/WX    TMP DP  RH WIND       PRES   REMARKS
MCCALL         CLOUDY    12   8  84 NW3       30.02F                  
HAILEY         MOCLDY    10   3  72 NW6       29.98S WCI   1          
STANLEY          N/A     -6 -13  71 CALM      29.96S                  
SALMON         CLOUDY    16   7  67 CALM      30.08S                  
CHALLIS        CLOUDY     7  -1  70 CALM      30.01S                  
$$

IDZ002-004-006-007-026-190900-
NORTHERN IDAHO

  
CITY           SKY/WX    TMP DP  RH WIND       PRES   REMARKS
LEWISTON       CLOUDY    25  20  81 CALM      30.27F                  
LOWELL           N/A     25  21  85 CALM      30.29S                  
COEUR D'ALENE  CLOUDY    10   8  92 CALM      30.20F                  
MULLAN PASS    CLOUDY     4  -1  80 CALM      29.92S                  
$$